Location: Newark
(40.7066°N, 111.8219°W)
Time: 00:34:25
(UTC+00:00)

Transit 2A Rocket - Pass Details

Date: 24 November 2019
Orbit: 594 x 909 km, 66.7° (Epoch: 12 December)

Event Time Altitude Azimuth Distance (km) Brightness Sun altitude
Rises 11:03:43 0° 347° (NNW) 2,846 - -37.6°
Reaches altitude 10° 11:07:16 10° 18° (NNE) 1,961 - -37.0°
Maximum altitude 11:09:08 12° 43° (NE) 1,821 - -36.6°
Exits shadow 11:09:37 12° 50° (NE) 1,837 7.5 -36.5°
Drops below altitude 10° 11:11:01 10° 69° (ENE) 1,997 7.9 -36.3°
Sets 11:14:43 0° 99° (E) 2,959 9.0 -35.6°
